Hourly Data Report for April 24, 2017

All times are specified in Local Standard Time (LST). Add 1 hour to adjust for Daylight Saving Time where and when it is observed.

GRAND ETANG
NOVA SCOTIA

46°33'00.000" N
61°03'00.000" W
12.80 m
8201969
WZQ

Related Data

No related data is available for this station

Download Data

Hourly Data (April 2017)
Hourly Data Report for April 24, 2017
Temp Definition
°C
Dew Point Temp Definition
°C
Rel Hum Definition
%
Wind Dir Definition
10's deg

Wind Spd Definition
km/h
Visibility Definition
km
Stn Press Definition
kPa
Hmdx Definition


Wind Chill Definition


Weather Definition


TIME
00:00 -0.3 -1.9 89 15 14   101.46   -5 LegendNANA
01:00 1.3 -0.4 89 17 14   101.54     LegendNANA
02:00 2.5 0.2 85 17 16   101.51     LegendNANA
03:00 2.7 0.6 86 18 18   101.51     LegendNANA
04:00 3.2 0.7 84 17 16   101.47     LegendNANA
05:00 3.5 0.8 82 18 16   101.46     LegendNANA
06:00 4.9 1.5 79 17 22   101.46     LegendNANA
07:00 6.2 2.3 76 18 20   101.56     LegendNANA
08:00 5.7 2.2 78 19 24   101.66     LegendNANA
09:00 5.1 2.2 82 20 22   101.76     LegendNANA
10:00 5.0 2.3 83 21 24   101.81     LegendNANA
11:00 4.2 1.9 85 22 15   101.88     LegendNANA
12:00 5.1 2.2 81 23 11   101.94     LegendNANA
13:00 7.2 2.6 73 25 11   101.98     LegendNANA
14:00 5.2 0.9 73 27 15   102.04     LegendNANA
15:00 5.1 0.2 71 29 11   102.06     LegendNANA
16:00 4.7 -0.1 71 30 9   102.10     LegendNANA
17:00 4.1 -1.7 66 32 2   102.08     LegendNANA
18:00 3.3 -0.9 74 34 4   102.14     LegendNANA
19:00 1.9 -1.2 80 32 7   102.20     LegendNANA
20:00 -0.2 -2.6 84 28 2   102.32   -1 LegendNANA
21:00 -1.6 -3.8 85 14 5   102.34   -3 LegendNANA
22:00 -1.1 -5.3 73 17 5   102.39   -3 LegendNANA
23:00 -2.4 -5.9 77   0   102.49     LegendNANA

Notes on Data Quality.

Legend

  • E = Estimated
  • M = Missing
  • NA = Not Available
  • ‡ = Partner data that is not subject to review by the National Climate Archives
Date modified: